Weather History for Hobart, OK

Change the Weather History Date:

Monday, October 15, 2012

  Actual Average Record
Temperature  
Mean Temperature 65 °F -  
Max Temperature 86 °F 72 °F 91 °F (1999)
Min Temperature 46 °F 48 °F 37 °F (2001)
Growing Degree Days 15 (Base 50)    
Moisture  
Dew Point 43 °F    
Average Humidity 50    
Maximum Humidity 80    
Minimum Humidity 20    
Precipitation  
Precipitation 0.00 in - - ()
Sea Level Pressure  
Sea Level Pressure 30.04 in    
Wind  
Wind Speed 8 mph (SW)    
Max Wind Speed 21 mph    
Max Gust Speed 26 mph    
Visibility 5 miles    
Events      
Averages and records for this station are not official NWS values.
T = Trace of Precipitation, MM = Missing Value Source: NWS Daily Summary

Daily Weather History Graph

Daily Weather History Graph

Search for Another Location

Airport:

Trip Planner

Search our weather history database for the weather conditions in past years. The results will help you decide how hot, cold, wet, or windy it might be!

Date:

Astronomy

Oct. 15, 2012 Rise Set
Actual Time 7:42 AM CDT 7:00 PM CDT
Civil Twilight 7:17 AM CDT 7:26 PM CDT
Nautical Twilight 6:47 AM CDT 7:55 PM CDT
Astronomical Twilight 6:18 AM CDT 8:24 PM CDT
Moon 7:52 AM CDT (10/15) 7:04 PM CDT (10/15)
Length of Visible Light 12h 09m
Length of Day
11h 18m
New Moon, 0% of the Moon is Illuminated
Oct 15
New Moon
Oct 21
First Quarter
Oct 29
Full
Nov 6
Last Quarter
Nov 13
New

Hourly Weather History & Observations

Time (CDT) Temp. Windchill Dew Point Humidity Pressure Visibility Wind Dir Wind Speed Gust Speed Precip Events Conditions
12:42 AM 53.6 °F - 42.8 °F 67% 30.15 in 1.8 mi WSW 4.6 mph - N/A   Haze
12:53 AM 54.0 °F - 42.1 °F 64% 30.12 in 1.5 mi WSW 4.6 mph - N/A   Haze
1:49 AM 53.6 °F - 42.8 °F 67% 30.14 in 2.0 mi SW 4.6 mph - N/A   Haze
1:53 AM 53.1 °F - 43.0 °F 69% 30.10 in 1.8 mi SW 4.6 mph - N/A   Haze
2:28 AM 53.6 °F - 42.8 °F 67% 30.13 in 2.0 mi SW 5.8 mph - N/A   Haze
2:35 AM 51.8 °F - 42.8 °F 71% 30.13 in 1.2 mi SW 5.8 mph - N/A   Haze
2:53 AM 50.0 °F - 41.0 °F 71% 30.11 in 1.5 mi WSW 6.9 mph - N/A   Haze
3:53 AM 50.0 °F - 42.1 °F 74% 30.09 in 1.5 mi SW 5.8 mph - N/A   Haze
4:53 AM 48.0 °F - 41.0 °F 77% 30.09 in 1.2 mi WSW 6.9 mph - N/A   Haze
5:53 AM 46.0 °F 42.5 °F 39.9 °F 79% 30.09 in 1.2 mi West 6.9 mph - N/A   Haze
6:53 AM 46.9 °F - 41.0 °F 80% 30.09 in 1.2 mi WNW 5.8 mph - N/A   Haze
7:53 AM 48.0 °F - 41.0 °F 77% 30.09 in 1.2 mi NW 4.6 mph - N/A   Haze
8:03 AM 48.2 °F - 41.0 °F 76% 30.11 in 0.5 mi WNW 4.6 mph - N/A   Haze
8:53 AM 54.0 °F - 43.0 °F 66% 30.09 in 0.8 mi West 4.6 mph - N/A   Haze
9:36 AM 60.8 °F - 44.6 °F 55% 30.13 in 1.8 mi WSW 5.8 mph - N/A   Haze
9:41 AM 62.6 °F - 44.6 °F 52% 30.13 in 3.0 mi WSW 6.9 mph - N/A   Haze
9:53 AM 64.0 °F - 44.1 °F 48% 30.10 in 7.0 mi SW 6.9 mph - N/A   Clear
10:43 AM 71.6 °F - 44.6 °F 38% 30.11 in 1.8 mi West 8.1 mph - N/A   Haze
10:53 AM 73.9 °F - 43.0 °F 33% 30.09 in 1.0 mi West 10.4 mph - N/A   Haze
11:23 AM 78.8 °F - 42.8 °F 28% 30.10 in 3.0 mi WSW 11.5 mph - N/A   Haze
11:30 AM 78.8 °F - 42.8 °F 28% 30.09 in 2.5 mi WSW 11.5 mph - N/A   Haze
11:53 AM 80.1 °F - 41.0 °F 25% 30.05 in 2.0 mi SW 12.7 mph - N/A   Haze
12:03 PM 80.6 °F - 41.0 °F 24% 30.08 in 8.0 mi WSW 13.8 mph 20.7 mph N/A   Clear
12:53 PM 82.9 °F - 39.0 °F 21% 30.02 in 9.0 mi SW 17.3 mph 23.0 mph N/A   Clear
1:53 PM 84.0 °F - 39.9 °F 21% 29.98 in 10.0 mi SW 10.4 mph 24.2 mph N/A   Clear
2:53 PM 84.9 °F - 39.9 °F 20% 29.95 in 10.0 mi SW 20.7 mph 25.3 mph N/A   Clear
3:53 PM 84.9 °F - 39.9 °F 20% 29.92 in 10.0 mi SW 18.4 mph 26.5 mph N/A   Clear
4:53 PM 84.9 °F - 39.0 °F 20% 29.90 in 10.0 mi SSW 20.7 mph 26.5 mph N/A   Clear
5:53 PM 82.9 °F - 39.0 °F 21% 29.89 in 10.0 mi SSW 19.6 mph 26.5 mph N/A   Clear
6:53 PM 75.9 °F - 43.0 °F 31% 29.90 in 10.0 mi South 11.5 mph - N/A   Clear
7:53 PM 68.0 °F - 45.0 °F 43% 29.92 in 10.0 mi South 11.5 mph - N/A   Clear
8:53 PM 68.0 °F - 46.0 °F 45% 29.92 in 10.0 mi South 15.0 mph - N/A   Clear
9:53 PM 66.0 °F - 48.9 °F 54% 29.91 in 10.0 mi South 16.1 mph - N/A   Clear
10:53 PM 64.0 °F - 48.0 °F 56% 29.89 in 10.0 mi South 13.8 mph - N/A   Clear
11:53 PM 64.0 °F - 46.9 °F 54% 29.87 in 10.0 mi South 12.7 mph - N/A   Clear